Regional Weather Roundup
Issued by NWS

Home | Current Version | Previous Version | Text Only | Print | Product List | Glossary Off
Versions: 1 2 3 4 5 6 7 8 9 10 11 12 13 14 15 16 17 18 19 20 21 22 23 24 25 26 27 28 29 30 31 32 33 34 35 36 37 38 39 40 41 42 43 44 45 46 47 48 49 50

000
ASUS44 KMEG 310510
RWRTN
TENNESSEE HOURLY STATE WEATHER ROUNDUP
NATIONAL WEATHER SERVICE MEMPHIS TN
1200 AM CDT SUN AUG 31 2014

TNZ002-004-019-021-049-052-054-088>092-310600-
WEST TENNESSEE

CITY           SKY/WX    TMP DP  RH WIND       PRES   REMARKS
MEMPHIS INTL   LGT RAIN  74  71  91 S10       29.99F
NWS MEMPHIS      N/A     72 N/A N/A MISG        N/A
JACKSON        CLOUDY    72  70  93 S6        30.01F
DYERSBURG      CLOUDY    72  63  73 S7        30.00S
UNION CITY     CLEAR     72  72 100 S7        29.98F
PARIS          PTCLDY    70  70 100 S9        30.02F
HUNTINGDON     CLOUDY    70  69  96 S7        30.02F
LEXINGTON      CLEAR     72  70  94 SE5       30.03F
SAVANNAH       CLEAR     72  72 100 SE5       30.06S
$$

TNZ008-025-027-028-033-062-065-066-310600-
NORTH MIDDLE TENNESSEE

CITY           SKY/WX    TMP DP  RH WIND       PRES   REMARKS
NASHVILLE      CLOUDY    71  70  96 S7        30.08R
DICKSON        CLOUDY    72  70  94 S5        30.05F
PORTLAND       CLOUDY    70  70 100 S3        30.04F
CLARKSVILLE    CLOUDY    73  71  93 VRB5      30.01F
LEBANON        CLOUDY    70  69  96 S8        30.07R
SMYRNA         CLOUDY    71  70  97 S6        30.09R
MURFREESBORO   CLOUDY    71  70  97 S6        30.09R
COOKEVILLE     CLEAR     70  70 100 S7        30.11R
LIVINGSTON     CLOUDY    68  67  96 SW7       30.10F
GALLATIN       CLOUDY    71  71 100 S3        30.06F
CROSSVILLE     CLOUDY    72  66  81 S3        30.17F
$$

TNZ061-075-076-078-094-096-097-310600-
SOUTH MIDDLE TENNESSEE

CITY           SKY/WX    TMP DP  RH WIND       PRES   REMARKS
LEWISBURG      CLOUDY    71  69  93 S6        30.08S
FAYETTEVILLE   PTCLDY    68  66  94 S3        30.12S
TULLAHOMA      CLOUDY    70  68  94 CALM      30.13S
WINCHESTER     CLEAR     70  70 100 SE5       30.12F
MCMINNVILLE    PTCLDY    72  72 100 CALM      30.13R
COLUMBIA         N/A     72  72 100 SE6       30.06S
SHELBYVILLE    CLEAR     72  72 100 SE5       30.11S
$$

TNZ017-018-042-046-047-310600-
NORTHEAST TENNESSEE

CITY           SKY/WX    TMP DP  RH WIND       PRES   REMARKS
TRI CITIES     CLOUDY    75  65  70 CALM      30.15S
ELIZABETHTON   CLOUDY    70  66  88 CALM      30.17R
$$

TNZ012-013-036-069-073-074-310600-
CENTRAL EAST TENNESSEE

CITY           SKY/WX    TMP DP  RH WIND       PRES   REMARKS
KNOXVILLE      LGT RAIN  70  69  97 S7        30.14F
OAK RIDGE      LGT RAIN  72  70  93 CALM      30.16F
GATLINBURG     CLOUDY    70  66  88 CALM      30.17R
MORRISTOWN     CLOUDY    72  70  94 SW9       30.20R
$$

TNZ083-085-099-310600-
SOUTHEAST TENNESSEE

CITY           SKY/WX    TMP DP  RH WIND       PRES   REMARKS
CHATTANOOGA    CLOUDY    73  69  87 CALM      30.14S
$$

SKY/WX REPORTED AS FAIR MEANS FEW OR NO CLOUDS BELOW
12 THOUSAND FEET.



USA.gov is the U.S. government's official web portal to all federal, state and local government web resources and services.